Flag for Sudan Weather past 2 weeks in Kassala, Sudan

Now
102 °F

Clear.


Feels Like: 97 °F
Forecast: 79 / 102 °F
Wind: 6 mph from Southeast

Location: Khartoum Airport

Current Time: Jul 29, 2015 at 9:25:02 PM

Latest Report: Jul 29, 2015 at 9:00 PM


Visibility: 10 mi

Pressure: 29.74 "Hg (28.14 "Hg at 506m altitude)

Humidity: 12%

Dew point: 41 °F

Location of KassalaLocation

Historic Weather in Kassala — Graph

°F

Kassala temperature yesterday

Maximum temperature yesterday: 108 °F (at 4:00 PM)
Minimum temperature yesterday: 86 °F (at 6:00 AM)
Average temperature yesterday: 97 °F

Past Weeks' High & Low Weather Summary

 TemperatureHumidityPressure
High109 °F (Jul 18, 5:00 PM)66% (Jul 17, 12:00 AM)32.43 "Hg (Jul 17, 12:00 AM)
Low79 °F (Jul 22, 6:00 AM)7% (Jul 18, 1:00 PM)29.68 "Hg (Jul 18, 5:30 PM)
Average95 °F30%29.81 "Hg
* Reported Jul 14 7:00 PM — Jul 29 7:30 PM, Kassala, Weather by CustomWeather, © 2015

Note: Actual official high and low records may vary slightly from our data, if they occured in-between our weather recording intervals... More about our weather records

Advertising

Kassala weather history for previous 24 hours

 ConditionsComfort  
Time TempWeatherWind HumidityBarometerVisibility
7:30 PM
Wed, Jul 29
N/AClear.5 mphN/A29.71 "Hg10 mi
7:00 PM104 °FSunny.6 mph13%29.71 "Hg10 mi
6:30 PMN/ASunny.5 mphN/A29.71 "Hg10 mi
6:00 PM106 °FSunny.5 mph13%29.68 "Hg10 mi
5:30 PMN/ASunny.5 mphN/A29.68 "Hg10 mi
5:00 PM106 °FSunny.5 mph13%29.68 "Hg10 mi
4:30 PMN/ASunny.5 mphN/A29.71 "Hg10 mi
4:00 PM106 °FSunny.5 mph13%29.71 "Hg10 mi
3:30 PMN/ASunny.6 mphN/A29.74 "Hg10 mi
3:00 PM106 °FSunny.5 mph13%29.74 "Hg10 mi
2:30 PMN/ASunny.2 mphN/A29.77 "Hg10 mi
2:00 PM106 °FSunny.3 mph14%29.77 "Hg10 mi
1:30 PMN/ASunny.6 mphN/A29.77 "Hg10 mi
1:00 PM102 °FSunny.10 mph18%29.80 "Hg10 mi
12:30 PMN/ASunny.10 mphN/A29.80 "Hg10 mi
12:00 PM99 °FSunny.13 mph25%29.80 "Hg10 mi
11:30 AMN/ASunny.12 mphN/A29.80 "Hg10 mi
10:30 AMN/ASunny.14 mphN/A29.83 "Hg10 mi
10:00 AM95 °FSunny.13 mph30%29.83 "Hg10 mi
9:30 AMN/ASunny.12 mphN/A29.83 "Hg10 mi
9:00 AM91 °FSunny.6 mph36%29.83 "Hg10 mi
8:30 AMN/ASunny.8 mphN/A29.83 "Hg10 mi
8:00 AM88 °FSunny.12 mph43%29.80 "Hg10 mi
7:00 AM88 °FSunny.7 mph43%29.80 "Hg10 mi
6:00 AM88 °FClear.10 mph43%29.80 "Hg10 mi
5:30 AMN/AClear.7 mphN/A29.80 "Hg10 mi
5:00 AM88 °FClear.9 mph43%29.77 "Hg10 mi
4:30 AMN/AClear.9 mphN/A29.77 "Hg10 mi
4:00 AM88 °FClear.12 mph43%29.77 "Hg10 mi
3:30 AMN/AClear.12 mphN/A29.77 "Hg10 mi
3:00 AM88 °FClear.15 mph46%29.77 "Hg10 mi
2:30 AMN/AClear.13 mphN/A29.77 "Hg10 mi
2:00 AM88 °FClear.17 mph46%29.77 "Hg10 mi
1:30 AMN/AClear.17 mphN/A29.80 "Hg10 mi
1:00 AM90 °FClear.16 mph43%29.77 "Hg10 mi
12:30 AMN/ASandstorm.18 mphN/A29.80 "Hg2 mi
12:00 AM91 °FSandstorm.23 mph49%29.80 "Hg1 mi
11:30 PM
Tue, Jul 28
N/A23 mphN/A29.80 "Hg1 mi
11:00 PM97 °FHaze.No wind16%29.77 "Hg2 mi
10:30 PMN/A3 mphN/A29.77 "Hg4 mi
10:00 PM97 °FExtremely hot.3 mph16%29.74 "Hg4 mi
9:30 PMN/ANo windN/A29.74 "Hg4 mi
9:00 PM99 °FClear.3 mph14%29.74 "Hg10 mi
Weather by CustomWeather, © 2015

See weather overviewHow to use our weather pages